Hourly Weather Río Gallegos

Today, 20 October, Tuesday

Time Temperature Precipitation Wind Pressure Humidity
00:00 +1°C° 0 mm 10 mps 760 mmHg 70%
01:00 +1°C° 0 mm 9 mps 761 mmHg 72%
02:00 +1°C° 0 mm 8 mps 762 mmHg 72%
03:00 0°C° 0 mm 8 mps 763 mmHg 73%
04:00 0°C° 0 mm 8 mps 763 mmHg 74%
05:00 +1°C° 0 mm 9 mps 764 mmHg 69%
06:00 +2°C° 0 mm 10 mps 765 mmHg 64%
07:00 +3°C° 0 mm 11 mps 765 mmHg 58%
08:00 +5°C° 0 mm 10 mps 765 mmHg 55%
09:00 +6°C° 0 mm 9 mps 766 mmHg 51%
10:00 +7°C° 0 mm 8 mps 766 mmHg 47%
11:00 +9°C° 0 mm 7 mps 766 mmHg 45%
12:00 +10°C° 0 mm 6 mps 766 mmHg 43%
13:00 +10°C° 0 mm 5 mps 766 mmHg 41%
14:00 +11°C° 0 mm 4 mps 765 mmHg 40%
15:00 +11°C° 0 mm 4 mps 765 mmHg 39%
16:00 +11°C° 0 mm 4 mps 765 mmHg 39%
17:00 +9°C° 0 mm 5 mps 765 mmHg 45%
18:00 +8°C° 0 mm 6 mps 765 mmHg 52%
19:00 +5°C° 0 mm 7 mps 765 mmHg 58%
20:00 +5°C° 0 mm 8 mps 765 mmHg 60%
21:00 +5°C° 0 mm 8 mps 765 mmHg 62%
22:00 +3°C° 0 mm 9 mps 765 mmHg 64%
23:00 +4°C° 0 mm 7 mps 764 mmHg 69%

Tomorrow, 21 October, Wednesday

Time Temperature Precipitation Wind Pressure Humidity
00:00 +3°C° 0 mm 6 mps 763 mmHg 74%
01:00 +3°C° 0 mm 5 mps 762 mmHg 79%
02:00 +4°C° 0 mm 4 mps 762 mmHg 78%
03:00 +4°C° 0 mm 3 mps 761 mmHg 76%
04:00 +5°C° 0 mm 2 mps 761 mmHg 75%
05:00 +6°C° 0 mm 2 mps 761 mmHg 69%
06:00 +7°C° 0 mm 2 mps 760 mmHg 63%
07:00 +8°C° 0 mm 3 mps 760 mmHg 58%
08:00 +9°C° 0 mm 3 mps 759 mmHg 51%
09:00 +11°C° 0 mm 3 mps 759 mmHg 45%
10:00 +12°C° 0 mm 3 mps 759 mmHg 39%
11:00 +13°C° 0 mm 4 mps 758 mmHg 37%
12:00 +13°C° 0 mm 4 mps 757 mmHg 36%
13:00 +14°C° 0 mm 4 mps 756 mmHg 34%
14:00 +14°C° 0 mm 4 mps 756 mmHg 36%
15:00 +14°C° 0 mm 4 mps 755 mmHg 38%
16:00 +13°C° 0 mm 4 mps 754 mmHg 39%
17:00 +12°C° 0 mm 3 mps 754 mmHg 43%
18:00 +12°C° 0 mm 2 mps 754 mmHg 47%
19:00 +11°C° 0 mm 1 mps 754 mmHg 51%
20:00 +10°C° 0 mm 2 mps 754 mmHg 49%
21:00 +10°C° 0 mm 2 mps 754 mmHg 47%
22:00 +10°C° 0 mm 2 mps 754 mmHg 46%
23:00 +10°C° 0 mm 2 mps 754 mmHg 47%

Day after tomorrow, 22 October, Thursday

Time Temperature Precipitation Wind Pressure Humidity
00:00 +10°C° 0 mm 2 mps 754 mmHg 48%
01:00 +9°C° 0 mm 2 mps 754 mmHg 50%
02:00 +9°C° 0 mm 2 mps 754 mmHg 51%
03:00 +9°C° 0 mm 2 mps 754 mmHg 53%
04:00 +8°C° 0 mm 2 mps 755 mmHg 55%
05:00 +8°C° 0 mm 4 mps 755 mmHg 55%
06:00 +9°C° 0 mm 5 mps 755 mmHg 56%
07:00 +11°C° 0 mm 6 mps 755 mmHg 56%
08:00 +11°C° 0 mm 6 mps 755 mmHg 54%
09:00 +13°C° 0 mm 6 mps 755 mmHg 52%
10:00 +14°C° 0 mm 7 mps 755 mmHg 51%
11:00 +14°C° 0 mm 6 mps 755 mmHg 49%
12:00 +15°C° 0 mm 5 mps 755 mmHg 48%
13:00 +15°C° 0 mm 4 mps 755 mmHg 47%
14:00 +14°C° 0 mm 4 mps 755 mmHg 49%
15:00 +14°C° 0 mm 4 mps 755 mmHg 50%
16:00 +13°C° 0 mm 4 mps 755 mmHg 51%
17:00 +12°C° 0 mm 3 mps 755 mmHg 55%
18:00 +13°C° 0 mm 2 mps 755 mmHg 59%
19:00 +12°C° 0 mm 2 mps 755 mmHg 63%
20:00 +12°C° 0 mm 2 mps 756 mmHg 65%
21:00 +10°C° 0 mm 2 mps 756 mmHg 67%
22:00 +10°C° 0 mm 2 mps 756 mmHg 69%
23:00 +10°C° 0 mm 2 mps 756 mmHg 69%

23 October, Friday

Time Temperature Precipitation Wind Pressure Humidity
00:00 +9°C° 0 mm 2 mps 755 mmHg 70%
01:00 +9°C° 0 mm 2 mps 755 mmHg 71%
02:00 +9°C° 0 mm 3 mps 755 mmHg 74%
03:00 +8°C° 0 mm 3 mps 755 mmHg 76%
04:00 +7°C° 0 mm 4 mps 755 mmHg 79%
05:00 +7°C° 0 mm 4 mps 755 mmHg 79%
06:00 +7°C° 0 mm 5 mps 755 mmHg 79%
07:00 +8°C° 0 mm 5 mps 755 mmHg 79%
08:00 +8°C° 0 mm 5 mps 754 mmHg 75%
09:00 +9°C° 0 mm 6 mps 754 mmHg 71%
10:00 +10°C° 0 mm 6 mps 754 mmHg 68%
11:00 +10°C° 0 mm 6 mps 754 mmHg 68%
12:00 +10°C° 0 mm 7 mps 754 mmHg 68%
13:00 +10°C° 0 mm 7 mps 754 mmHg 69%
14:00 +10°C° 0 mm 7 mps 754 mmHg 71%
15:00 +9°C° 0 mm 7 mps 754 mmHg 74%
16:00 +8°C° 0 mm 7 mps 754 mmHg 76%
17:00 +8°C° 0 mm 6 mps 755 mmHg 78%
18:00 +7°C° 0 mm 6 mps 755 mmHg 80%
19:00 +7°C° 0 mm 5 mps 755 mmHg 82%
20:00 +6°C° 0.4 mm 5 mps 756 mmHg 85%
21:00 +6°C° 0.4 mm 4 mps 756 mmHg 87%
22:00 +6°C° 0.4 mm 4 mps 756 mmHg 90%
23:00 +6°C° 0.5 mm 4 mps 756 mmHg 90%

24 October, Saturday

Time Temperature Precipitation Wind Pressure Humidity
00:00 +6°C° 0.5 mm 4 mps 756 mmHg 91%
01:00 +6°C° 0.5 mm 4 mps 756 mmHg 91%
02:00 +6°C° 0.3 mm 4 mps 756 mmHg 91%
03:00 +5°C° 0.3 mm 3 mps 756 mmHg 90%
04:00 +5°C° 0.3 mm 3 mps 757 mmHg 90%
05:00 +7°C° 0 mm 3 mps 757 mmHg 86%
06:00 +7°C° 0 mm 3 mps 757 mmHg 83%
07:00 +7°C° 0 mm 3 mps 757 mmHg 80%
08:00 +7°C° 0 mm 3 mps 757 mmHg 81%
09:00 +7°C° 0 mm 4 mps 757 mmHg 81%
10:00 +7°C° 0 mm 4 mps 757 mmHg 82%
11:00 +7°C° 0 mm 4 mps 757 mmHg 82%
12:00 +7°C° 0 mm 5 mps 757 mmHg 82%
13:00 +7°C° 0 mm 5 mps 757 mmHg 83%
14:00 +6°C° 0 mm 5 mps 757 mmHg 83%
15:00 +6°C° 0 mm 5 mps 757 mmHg 83%
16:00 +6°C° 0 mm 5 mps 756 mmHg 83%
17:00 +6°C° 0 mm 5 mps 756 mmHg 84%
18:00 +5°C° 0 mm 5 mps 757 mmHg 86%
19:00 +5°C° 0 mm 4 mps 757 mmHg 87%
20:00 +5°C° 0 mm 4 mps 757 mmHg 88%
21:00 +4°C° 0 mm 3 mps 756 mmHg 88%
22:00 +4°C° 0 mm 3 mps 756 mmHg 89%
23:00 +5°C° 0 mm 2 mps 756 mmHg 88%

25 October, Sunday

Time Temperature Precipitation Wind Pressure Humidity
00:00 +5°C° 0 mm 2 mps 756 mmHg 88%
01:00 +5°C° 0 mm 2 mps 755 mmHg 87%
02:00 +5°C° 0 mm 2 mps 755 mmHg 87%
03:00 +5°C° 0 mm 2 mps 755 mmHg 86%
04:00 +3°C° 0 mm 3 mps 754 mmHg 86%
05:00 +5°C° 0 mm 2 mps 754 mmHg 82%
06:00 +5°C° 0 mm 2 mps 754 mmHg 78%
07:00 +6°C° 0 mm 2 mps 754 mmHg 74%
08:00 +6°C° 0 mm 2 mps 753 mmHg 69%
09:00 +8°C° 0 mm 1 mps 753 mmHg 65%
10:00 +9°C° 0 mm 1 mps 752 mmHg 60%
11:00 +9°C° 0 mm 2 mps 752 mmHg 59%
12:00 +9°C° 0 mm 3 mps 751 mmHg 58%
13:00 +8°C° 0 mm 4 mps 751 mmHg 57%
14:00 +8°C° 0 mm 4 mps 750 mmHg 58%
15:00 +7°C° 0 mm 5 mps 750 mmHg 60%
16:00 +7°C° 0 mm 5 mps 749 mmHg 61%
17:00 +6°C° 0 mm 5 mps 749 mmHg 65%
18:00 +5°C° 0 mm 5 mps 749 mmHg 68%
19:00 +4°C° 0 mm 4 mps 749 mmHg 71%
20:00 +4°C° 0 mm 4 mps 748 mmHg 73%
21:00 +4°C° 0 mm 4 mps 748 mmHg 74%
22:00 +4°C° 0 mm 4 mps 747 mmHg 75%
23:00 +3°C° 0 mm 5 mps 747 mmHg 77%

26 October, Monday

Time Temperature Precipitation Wind Pressure Humidity
00:00 +3°C° 0 mm 5 mps 746 mmHg 78%
01:00 +3°C° 0 mm 5 mps 746 mmHg 79%
02:00 +4°C° 0 mm 4 mps 745 mmHg 79%
03:00 +4°C° 0 mm 4 mps 745 mmHg 78%
04:00 +4°C° 0 mm 3 mps 745 mmHg 78%
05:00 +5°C° 0 mm 5 mps 745 mmHg 74%
06:00 +7°C° 0 mm 6 mps 745 mmHg 71%
07:00 +8°C° 0 mm 7 mps 745 mmHg 67%
08:00 +8°C° 0 mm 9 mps 745 mmHg 59%
09:00 +9°C° 0 mm 11 mps 745 mmHg 51%
10:00 +10°C° 0 mm 12 mps 745 mmHg 43%
11:00 +10°C° 0 mm 12 mps 745 mmHg 41%
12:00 +11°C° 0 mm 11 mps 745 mmHg 39%
13:00 +11°C° 0 mm 11 mps 745 mmHg 38%
14:00 +11°C° 0 mm 10 mps 745 mmHg 37%
15:00 +11°C° 0 mm 10 mps 745 mmHg 36%
16:00 +11°C° 0 mm 9 mps 744 mmHg 35%
17:00 +10°C° 0 mm 7 mps 744 mmHg 41%
18:00 +8°C° 0 mm 5 mps 744 mmHg 46%
19:00 +8°C° 0 mm 3 mps 745 mmHg 52%
20:00 +8°C° 0.2 mm 3 mps 745 mmHg 55%
21:00 +6°C° 0.2 mm 4 mps 745 mmHg 58%
22:00 +6°C° 0.2 mm 4 mps 744 mmHg 61%
23:00 +5°C° 0.3 mm 4 mps 744 mmHg 68%
Show more